Powrót do katalogu

CZ-4C R/B

AktywnySSO
NORAD 48080·ROCKET BODY·🇨🇳 China

Wystrzelony Mar 30, 2021 z Jiuquan Satellite Launch Center

Loading…

Następne Przeloty (najbliższe 24 godziny)

TLE

ŚwieżeSource: Space-Track

Epoka: Sep 14, 2026, 09:24 UTC

1 48080U 21026B   26257.39215208  .00002306  00000-0  11582-3 0  9994
2 48080  97.7236 309.9613 0039370  89.0211 271.5532 15.17692264300360

Śledź CZ-4C R/B w czasie rzeczywistym z AllMySat

Download on the App Store